Weather History for Maxwell AFB, AL

Change the Weather History Date:

Sunday, June 9, 2013

  Actual Average Record
Temperature  
Mean Temperature 77 °F -  
Max Temperature 84 °F 87 °F 96 °F (1999)
Min Temperature 71 °F 68 °F 66 °F (1997)
Cooling Degree Days 12    
Growing Degree Days 27 (Base 50)    
Moisture  
Dew Point 66 °F    
Average Humidity 70    
Maximum Humidity 85    
Minimum Humidity 54    
Precipitation  
Precipitation 0.11 in - - ()
Sea Level Pressure  
Sea Level Pressure 30.03 in    
Wind  
Wind Speed 8 mph (South)    
Max Wind Speed 18 mph    
Max Gust Speed 23 mph    
Visibility 10 miles    
Events Rain    
Averages and records for this station are not official NWS values.
T = Trace of Precipitation, MM = Missing Value Source: NWS Daily Summary

Daily Weather History Graph

Daily Weather History Graph

Search for Another Location

Airport:

Trip Planner

Search our weather history database for the weather conditions in past years. The results will help you decide how hot, cold, wet, or windy it might be!

Date:

Astronomy

Jun. 09, 2013 Rise Set
Actual Time 5:37 AM CDT 7:51 PM CDT
Civil Twilight 5:09 AM CDT 8:20 PM CDT
Nautical Twilight 4:35 AM CDT 8:54 PM CDT
Astronomical Twilight 3:57 AM CDT 9:32 PM CDT
Moon 6:30 AM CDT (6/9) 8:42 PM CDT (6/9)
Length of Visible Light 15h 10m
Length of Day
14h 13m
New Moon, 1% of the Moon is Illuminated
Jun 9
New Moon
Jun 16
First Quarter
Jun 23
Full
Jun 29
Last Quarter
Jul 8
New

Hourly Weather History & Observations

Time (CDT) Temp. Heat Index Dew Point Humidity Pressure Visibility Wind Dir Wind Speed Gust Speed Precip Events Conditions
12:58 AM 73.0 °F - 65.5 °F 77% 30.06 in 10.0 mi South 5.8 mph - N/A   Scattered Clouds
1:58 AM 72.7 °F - 65.7 °F 79% 30.04 in 10.0 mi SSW 4.6 mph - N/A   Clear
2:58 AM 72.3 °F - 66.4 °F 82% 30.04 in 10.0 mi Calm Calm - N/A   Scattered Clouds
3:58 AM 72.1 °F - 66.7 °F 83% 30.05 in 10.0 mi SSE 4.6 mph - N/A   Partly Cloudy
4:58 AM 72.5 °F - 67.5 °F 84% 30.04 in 10.0 mi SSE 5.8 mph - N/A   Clear
5:31 AM 73.4 °F - 68.0 °F 83% 30.04 in 10.0 mi South 3.5 mph - N/A Rain Light Rain
5:56 AM 73.4 °F - 68.0 °F 83% 30.05 in 10.0 mi South 4.6 mph - N/A Rain Light Rain
5:58 AM 73.4 °F - 68.5 °F 85% 30.06 in 10.0 mi South 4.6 mph - 0.00 in Rain Light Rain
6:18 AM 73.4 °F - 68.0 °F 83% 30.06 in 8.0 mi SSE 8.1 mph - N/A Rain Light Rain
6:58 AM 72.7 °F - 67.6 °F 84% 30.06 in 6.0 mi SSE 6.9 mph - 0.06 in Rain Light Rain
7:43 AM 71.6 °F - 66.2 °F 83% 30.03 in 10.0 mi Variable 2.3 mph - N/A   Clear
7:58 AM 72.5 °F - 66.7 °F 82% 30.05 in 10.0 mi South 3.5 mph - 0.05 in   Clear
8:58 AM 76.5 °F - 66.9 °F 72% 30.07 in 10.0 mi SSE 8.1 mph - N/A   Mostly Cloudy
9:58 AM 81.7 °F 84.3 °F 67.5 °F 62% 30.06 in 10.0 mi SSE 11.5 mph - N/A   Partly Cloudy
10:13 AM 80.6 °F 82.7 °F 66.2 °F 61% 30.06 in 10.0 mi South 8.1 mph - N/A   Mostly Cloudy
10:33 AM 82.4 °F 84.6 °F 66.2 °F 58% 30.07 in 10.0 mi SSE 13.8 mph - N/A   Scattered Clouds
10:58 AM 82.0 °F 83.9 °F 65.5 °F 57% 30.06 in 10.0 mi South 10.4 mph 20.7 mph N/A   Scattered Clouds
11:23 AM 82.4 °F 84.6 °F 66.2 °F 58% 30.06 in 10.0 mi Variable 6.9 mph - N/A   Mostly Cloudy
11:43 AM 82.4 °F 83.9 °F 64.4 °F 54% 30.04 in 10.0 mi South 9.2 mph - N/A   Scattered Clouds
11:58 AM 83.5 °F 85.5 °F 66.0 °F 55% 30.05 in 10.0 mi South 11.5 mph - N/A   Scattered Clouds
12:58 PM 82.2 °F 84.2 °F 65.7 °F 57% 30.06 in 10.0 mi South 12.7 mph - N/A   Overcast
1:18 PM 80.6 °F 82.7 °F 66.2 °F 61% 30.04 in 10.0 mi South 8.1 mph - N/A   Light Drizzle
1:27 PM 80.6 °F 82.7 °F 66.2 °F 61% 30.03 in 10.0 mi South 11.5 mph - N/A   Overcast
1:31 PM 80.6 °F 82.7 °F 66.2 °F 61% 30.03 in 10.0 mi South 9.2 mph - N/A Rain Light Rain
1:41 PM 78.8 °F - 66.2 °F 65% 30.03 in 10.0 mi South 15.0 mph 23.0 mph N/A Rain Light Rain
1:50 PM 78.8 °F - 68.0 °F 69% 30.03 in 10.0 mi South 11.5 mph - N/A   Mostly Cloudy
1:58 PM 79.0 °F - 67.3 °F 67% 30.03 in 10.0 mi South 11.5 mph - 0.00 in   Mostly Cloudy
2:13 PM 78.8 °F - 66.2 °F 65% 30.02 in 10.0 mi South 15.0 mph - N/A   Mostly Cloudy
2:18 PM 78.8 °F - 66.2 °F 65% 30.02 in 10.0 mi South 17.3 mph - N/A   Mostly Cloudy
2:19 PM 78.8 °F - 66.2 °F 65% 30.02 in 10.0 mi South 16.1 mph - N/A Rain Light Rain
2:27 PM 78.8 °F - 66.2 °F 65% 30.02 in 10.0 mi South 18.4 mph 23.0 mph N/A   Mostly Cloudy
2:58 PM 78.3 °F - 65.7 °F 65% 30.02 in 10.0 mi South 15.0 mph 20.7 mph 0.00 in   Scattered Clouds
3:23 PM 77.0 °F - 66.2 °F 69% 30.01 in 10.0 mi South 17.3 mph 23.0 mph N/A   Mostly Cloudy
3:48 PM 78.8 °F - 66.2 °F 65% 29.98 in 10.0 mi South 11.5 mph - N/A   Scattered Clouds
3:58 PM 78.1 °F - 66.0 °F 66% 29.99 in 10.0 mi South 12.7 mph - N/A   Partly Cloudy
4:28 PM 77.0 °F - 66.2 °F 69% 29.98 in 10.0 mi South 10.4 mph - N/A   Mostly Cloudy
4:33 PM 77.0 °F - 66.2 °F 69% 29.98 in 10.0 mi South 10.4 mph - N/A   Scattered Clouds
4:43 PM 77.0 °F - 66.2 °F 69% 29.99 in 10.0 mi Variable 6.9 mph - N/A   Mostly Cloudy
4:58 PM 77.4 °F - 64.8 °F 65% 30.00 in 10.0 mi SSW 12.7 mph - N/A   Mostly Cloudy
5:08 PM 77.0 °F - 64.4 °F 65% 29.98 in 10.0 mi SSW 4.6 mph - N/A   Scattered Clouds
5:58 PM 77.2 °F - 64.4 °F 65% 30.00 in 10.0 mi SSW 9.2 mph - N/A   Partly Cloudy
6:58 PM 76.1 °F - 64.2 °F 67% 29.99 in 10.0 mi SSW 3.5 mph - N/A   Mostly Cloudy
7:58 PM 75.0 °F - 64.6 °F 70% 29.99 in 10.0 mi SSE 6.9 mph - N/A   Overcast
8:58 PM 74.3 °F - 65.3 °F 73% 30.00 in 10.0 mi South 9.2 mph - N/A   Overcast
9:28 PM 73.4 °F - 66.2 °F 78% 30.00 in 10.0 mi South 12.7 mph - N/A   Overcast
9:38 PM 75.2 °F - 66.2 °F 73% 30.00 in 10.0 mi SSE 9.2 mph - N/A   Overcast
9:48 PM 73.4 °F - 66.2 °F 78% 30.00 in 10.0 mi SSE 10.4 mph - N/A   Overcast
9:58 PM 73.9 °F - 65.5 °F 75% 30.01 in 10.0 mi SSE 12.7 mph - N/A   Mostly Cloudy
10:43 PM 73.4 °F - 66.2 °F 78% 30.02 in 10.0 mi SSE 9.2 mph - N/A   Mostly Cloudy
10:58 PM 73.6 °F - 66.2 °F 78% 30.04 in 10.0 mi South 9.2 mph - N/A   Overcast
11:58 PM 73.4 °F - 66.2 °F 78% 30.05 in 10.0 mi South 2.3 mph - N/A   Overcast